Weather in Tarlag

Russia / Tyva Republic     52°04′01″N   93°24′34″E
temp.,
°C
wind,
m/s
gust,
m/s
humid.,
%
clouds,
%
prec.,
mm/h
press.,
hPa
HPBL,
m
6 august, fri
fri601:00+13wsw2496100 17.4 1005178
04:00+13wnw229472 0.3 100443
07:00+13wnw2393100 0.4 1005149
10:00+15nw3779100 0.0 1004792
13:00+18n6857100 0.4 10031635
16:00+19n6753100 0.3 10041424
19:00+14n3680100 1.0 1006280
22:00+12w2491100 0.7 1007106
7 august, sat
sat701:00+12w2294100 1.7 100866
04:00+11wsw2396100 2.5 1008118
07:00+11w2497100 7.9 1009190
10:00+12w2496100 3.1 1011290
13:00+13w358898 3.9 1011431
16:00+16nw3570100 0.3 1011926
19:00+16nw237679 0.3 1011198
22:00+11wsw228959 0.0 101315
8 august, sun
sun801:00+10wsw119096 0.0 101311
04:00+10sw1191100 0.0 101310
07:00+11ese0087100 0.0 101481
10:00+16e126815 0.0 1012777
13:00+20ne125314 0.1 10101403
16:00+22ene114740 0.1 10091561
19:00+19e226446 0.1 100948
22:00+14wsw11793 0.1 101011
9 august, mon
mon901:00+11wnw11907 1.4 101110
04:00+10wsw11915 0.0 101110
07:00+12nw00905 0.0 101178
10:00+17ne117221 0.0 1010540
13:00+22ene22545 0.1 10081090
16:00+22n115229 0.5 1007824
19:00+21ese01620 0.5 100712
22:00+15s1175100 0.0 100811
10 august, tue
tue1001:00+14sse018096 0.0 100911
04:00+12nw00844 0.0 100910
07:00+14ene1178100 0.0 100952
10:00+20ene126029 0.0 1008578
13:00+24ne234892 0.0 10061084
16:00+26ene223899 0.0 10041728
19:00+22ese2257100 0.0 100424
22:00+17wsw1168100 0.1 100511